Content
SEND FEEDBACK

Daily
Averages
Monthly
Summary
United States of America

SHELBYVILLE, INDIANA


Home > North America > United States > Indiana
Elevation: 775 feet     Latitude: 39 31N     Longitude: 085 46W

WEATHER
 
SELECT A DAY
Number of Records: 173,187;   Date Range: 10/15/98 - 9/16/14
 
SHARE

PRINT THIS DATA

[ ← Previous Day ]
WEATHER ALMANAC - JUNE 7, 2014
[ Next Day → ]
[ °C ]   °F
Weather ElementAverageHighLow
Temperature73 °F82 °F (2:53 pm)59 °F (5:53 am)
Dewpoint53.7 °F57 °F (1:53 am)52 °F (11:53 am)
Humidity53.8 %83 % (2:53 am)35 % (2:53 pm)
Barometer29.93 in30.04 in (7:53 am)29.77 in (11:53 pm)
Wind Speed8 mph12.7 mph (1:53 pm)
Wind Gust17.3 mph (12:53 pm)
Weather ElementAverage
Visibility10 mi
Wind DirectionESE (113.6 °)

Weather ElementTotal
Precipitation---
Cooling Degree Days5.5 (Base 65)
Growing Degree Days20.5 (Base 50)
Averaged from 22 records on June 7, 2014
WEATHER CONDITIONS BREAKOUT
WIND DIRECTION BREAKOUT
WEATHER BY HOUR - JUNE 7, 2014
[ °C ]   °F
Local TimeTemperatureDewpointHumidityBarometerVisibilityWind DirectionWind SpeedGust SpeedPrecipitationEventsConditions
1:53 AM63.0 °F57.0 °F81 %30.00 in10.0 miNNE (20°)3.5 mphClear
2:53 AM61.0 °F55.9 °F83 %29.98 in10.0 miENE (60°)5.8 mphClear
3:53 AM61.0 °F55.0 °F81 %29.97 in10.0 miNE (50°)4.6 mphClear
4:53 AM61.0 °F53.1 °F75 %29.97 in10.0 miESE (110°)3.5 mphClear
5:53 AM59.0 °F53.1 °F81 %29.99 in10.0 miEast (90°)3.5 mphClear
6:53 AM59.0 °F54.0 °F83 %30.03 in10.0 miCalmClear
7:53 AM64.9 °F55.0 °F70 %30.04 in10.0 miCalmClear
9:53 AM73.9 °F54.0 °F50 %30.03 in10.0 miSouth (180°)8.1 mphClear
10:53 AM77.0 °F53.1 °F43 %30.01 in10.0 miSSE (160°)9.2 mphClear
11:53 AM79.0 °F52.0 °F39 %30.00 in10.0 miSSE (160°)11.5 mphClear
12:53 PM80.1 °F52.0 °F38 %29.97 in10.0 miSE (140°)10.4 mph17.3 mphClear
1:53 PM81.0 °F52.0 °F36 %29.96 in10.0 miSouth (170°)12.7 mphClear
2:53 PM82.0 °F52.0 °F35 %29.94 in10.0 miSE (140°)12.7 mphClear
3:53 PM82.0 °F53.1 °F37 %29.92 in10.0 miSSE (150°)10.4 mphClear
4:53 PM82.0 °F52.0 °F35 %29.90 in10.0 miSSE (150°)12.7 mphClear
5:53 PM82.0 °F54.0 °F38 %29.88 in10.0 miSouth (170°)11.5 mphClear
6:53 PM80.1 °F53.1 °F39 %29.87 in10.0 miSSE (150°)11.5 mphClear
7:53 PM79.0 °F54.0 °F42 %29.84 in10.0 miSE (130°)9.2 mphClear
8:53 PM75.9 °F53.1 °F45 %29.81 in10.0 miESE (120°)6.9 mphClear
9:53 PM75.0 °F54.0 °F48 %29.80 in10.0 miESE (120°)8.1 mphClear
10:53 PM73.9 °F55.0 °F52 %29.80 in10.0 miESE (120°)9.2 mphScattered Clouds
11:53 PM73.9 °F55.0 °F52 %29.77 in10.0 miESE (110°)10.4 mphMostly Cloudy
Hourly data recorded from KGEZ, located miles away from Shelbyville, Indiana







STORIES FROM OUR PARTNERS